Flag for Germany Weather past 2 weeks in Mosbach, Baden-Württemberg, Germany

Now
68 °F

Clear.


Feels Like: 68 °F
Forecast: 56 / 70 °F
Wind: 5 mph from Northwest

Location: Oehringen

Current Time: Jul 8, 2015 at 2:59:03 AM

Latest Report: Jul 8, 2015 at 2:00 AM


Visibility: 19 mi

Pressure: 29.83 "Hg

Humidity: 80%

Dew point: 61 °F

Location of MosbachLocation

Historic Weather in Mosbach — Graph

°F

Mosbach temperature yesterday

Maximum temperature yesterday: 94 °F (at 5:00 PM)
Minimum temperature yesterday: 64 °F (at 5:00 AM)
Average temperature yesterday: 80 °F

Past Weeks' High & Low Weather Summary

 TemperatureHumidityPressure
High100 °F (Jul 5, 5:00 PM)98% (Jun 27, 11:00 AM)30.24 "Hg (Jun 27, 11:00 AM)
Low49 °F (Jun 23, 7:00 AM)21% (Jul 5, 3:00 PM)29.68 "Hg (Jul 7, 8:00 PM)
Average73 °F61%30.08 "Hg
* Reported Jun 23 1:00 AM — Jul 8 1:00 AM, Mosbach, Weather by CustomWeather, © 2015

Note: Actual official high and low records may vary slightly from our data, if they occured in-between our weather recording intervals... More about our weather records

Advertising

Mosbach weather history for previous 24 hours

 ConditionsComfort  
Time TempWeatherWind HumidityBarometerVisibility
1:00 AM
Wed, Jul 8
70 °FPassing clouds.7 mph76%29.80 "Hg19 mi
12:00 AM72 °FOvercast.3 mph81%29.76 "Hg16 mi
11:00 PM
Tue, Jul 7
75 °FOvercast.6 mph70%29.79 "Hg19 mi
10:00 PM82 °FLight rain. Overcast.5 mph50%29.72 "Hg19 mi
9:00 PM86 °FSunny.6 mph47%29.69 "Hg17 mi
8:00 PM91 °FPartly sunny.5 mph39%29.68 "Hg16 mi
7:00 PM94 °FSunny.3 mph36%29.69 "Hg17 mi
6:00 PM94 °FSunny.3 mph33%29.70 "Hg17 mi
5:00 PM94 °FOvercast.6 mph32%29.75 "Hg22 mi
4:00 PM94 °FSunny.5 mph34%29.77 "Hg13 mi
3:00 PM92 °FSunny.5 mph39%29.79 "Hg14 mi
2:00 PM91 °FSunny.5 mph40%29.82 "Hg14 mi
1:00 PM90 °FSunny.1 mph38%29.83 "Hg18 mi
12:00 PM88 °FSunny.2 mph43%29.85 "Hg17 mi
11:00 AM86 °FSunny.1 mph43%29.89 "Hg19 mi
10:00 AM80 °FSunny.1 mph45%29.92 "Hg22 mi
9:00 AM76 °FSunny.1 mph48%29.94 "Hg28 mi
8:00 AM71 °FSunny.1 mph59%29.97 "Hg19 mi
7:00 AM65 °FSunny.2 mph73%29.98 "Hg22 mi
5:00 AM64 °FClear.2 mph73%30.01 "Hg19 mi
4:00 AM64 °FClear.2 mph71%30.02 "Hg22 mi
3:00 AM64 °FClear.2 mph72%30.04 "Hg19 mi
2:00 AM65 °FClear.1 mph70%30.05 "Hg19 mi
Weather by CustomWeather, © 2015

See weather overviewHow to use our weather pages